Regional Weather Roundup
Issued by NWS

Home | Current Version | Previous Version | Text Only | Print | Product List | Glossary Off
Versions: 1 2 3 4 5 6 7 8 9 10 11 12 13 14 15 16 17 18 19 20 21 22 23 24 25 26 27 28 29 30 31 32 33 34 35 36 37 38 39 40 41 42 43 44 45 46 47 48 49 50

000
ASUS43 KMKX 110500
RWRWI

WISCONSIN REGIONAL WEATHER ROUNDUP
NATIONAL WEATHER SERVICE MILWAUKEE/SULLIVAN WI
1100 PM CST SAT DEC 10 2016

NOTE: "FAIR" INDICATES FEW OR NO CLOUDS BELOW 12,000 FEET WITH NO
SIGNIFICANT WEATHER AND/OR OBSTRUCTIONS TO VISIBILITY.

WIZ001-002-006>008-014>016-023>028-110600-
NORTHWEST WISCONSIN

CITY           SKY/WX    TMP DP  RH WIND       PRES   REMARKS
SUPERIOR ARPT  PTCLDY     9   3  75 SE6       30.27F WCI   0
ASHLAND        CLOUDY     6   1  80 CALM      30.27S
HAYWARD        LGT SNOW  11   4  73 VRB3      30.21R
SIREN          LGT SNOW  11   7  82 CALM      30.23R
CUMBERLAND     LGT SNOW  10   7  85 E3        30.20R
RICE LAKE      LGT SNOW  12   9  85 E3        30.22S
CHETEK         LGT SNOW  12   8  86 SE6       30.21S WCI   2
LADYSMITH      LGT SNOW  12   8  86 E3        30.22F
EAU CLAIRE     LGT SNOW  14  10  85 E5        30.21F FOG     WCI   6
MENOMONIE      LGT SNOW  15  11  87 E5        30.21F WCI   7
NEW RICHMOND   LGT SNOW  13   9  83 E6        30.19F WCI   4
OSCEOLA        LGT SNOW  13  10  86 E5        30.23F WCI   5
$$

WIZ003>005-009-010-017-018-110600-
NORTH CENTRAL WISCONSIN

CITY           SKY/WX    TMP DP  RH WIND       PRES   REMARKS
MANITOWISH WTR CLOUDY     2  -1  90 CALM      30.18F
ARBOR VITAE    CLOUDY     4   0  84 CALM      30.19F
WOODRUFF       CLOUDY     4   0  84 CALM      30.19F
RHINELANDER    CLOUDY     9   3  77 E3        30.20F
EAGLE RIVER    CLOUDY     3  -1  82 CALM      30.20S
LAND O LAKES   CLOUDY    -1  -5  84 CALM      30.21F
PHILLIPS       LGT SNOW   9   5  85 E3        30.19S
TOMAHAWK       LGT SNOW   9   5  84 CALM      30.21S
MEDFORD        LGT SNOW  10   6  86 SE5       30.19S WCI   2
MERRILL        LGT SNOW  10   7  87 SE3       30.23S
$$

WIZ029-030-035-036-043>047-110600-
CENTRAL WISCONSIN

CITY           SKY/WX    TMP DP  RH WIND       PRES   REMARKS
WAUSAU         LGT SNOW  11   8  88 E7        30.22F FOG     WCI   0
MOSINEE        LGT SNOW  12  12 100 E3        30.24S
MARSHFIELD     LGT SNOW  13  10  88 SE6       30.20F FOG     WCI   4
STEVENS POINT  MIX PCPN  12  10  91 E5        30.25S WCI   4
WAUPACA        LGT SNOW  18  14  85 CALM      30.28F
WAUTOMA        LGT SNOW  16  13  88 E5        30.28S FOG     WCI   9
WISC RAPIDS    LGT SNOW  15  13  91 SE7       30.25F VSB 1   WCI   5
CAMP DOUGLAS   LGT SNOW  16  14  93 E6        30.23S FOG     WCI   7
$$

WIZ011>013-019>022-031-037>040-048>050-110600-
NORTHEAST WISCONSIN

CITY           SKY/WX    TMP DP  RH WIND       PRES   REMARKS
ANTIGO         LGT SNOW   9   5  81 CALM      30.22R
SHAWANO        LGT SNOW  16  12  83 E3        30.30S
OCONTO         CLOUDY    15   6  68 CALM      30.32S
STURGEON BAY   FLURRIES  17  10  74 S3        30.32S
GREEN BAY      LGT SNOW  19  14  81 CALM      30.31S
MANITOWOC      LGT SNOW  18  14  86 CALM      30.33S FOG
APPLETON       LGT SNOW  16  12  86 VRB5      30.27S WCI   9
CLINTONVILLE   LGT SNOW  18  12  79 CALM      30.29S
OSHKOSH        LGT SNOW  18  15  88 E3        30.28S FOG
$$

WIZ032>034-041-042-053>061-110600-
SOUTHWEST WISCONSIN

CITY           SKY/WX    TMP DP  RH WIND       PRES   REMARKS
LA CROSSE      LGT SNOW  18  14  84 E7        30.21F FOG     WCI   9
SPARTA         LGT SNOW  16  15  93 E7        30.22F VSB 3/4 WCI   7
VIROQUA        CLOUDY    17  15  93 E9        30.17F WCI   5
BOSCOBEL       LGT SNOW  21  17  84 NE5       30.23S FOG     WCI  15
PRAIRIE DU CHI LGT SNOW  22  17  83 E8        30.21S WCI  12
PLATTEVILLE    CLOUDY    22  21  96 E8        30.19F WCI  12
$$

WIZ056-057-062-063-064-067-068-110600-
SOUTH CENTRAL WISCONSIN

CITY           SKY/WX    TMP DP  RH WIND       PRES   REMARKS
REEDSBURG      LGT SNOW  18  17  96 E3        30.23S
BARABOO/DELLS  LGT SNOW  18  16  90 E6        30.24R VSB 3/4 WCI  10
LONE ROCK      LGT SNOW  20  17  88 E8        30.25R VSB 3/4 WCI  10
MINERAL POINT  LGT SNOW  23  21  93 SE12      30.19F WCI  12
MADISON        LGT SNOW  20  17  88 SE9       30.25S FOG     WCI   9
MIDDLETON      CLOUDY    22  19  90 SE8       30.25R WCI  12
WATERTOWN      LGT SNOW  20  20 100 E5        30.27S WCI  13
MONROE         FLURRIES  21  19  93 SE8       30.21F WCI  12
JANESVILLE     LGT SNOW  23  21  93 SE7       30.25F WCI  15
$$

WIZ051-052-058>065-066-070>072-110600-
SOUTHEAST WISCONSIN

CITY           SKY/WX    TMP DP  RH WIND       PRES   REMARKS
MILWAUKEE      LGT SNOW  22  18  85 S3        30.30S FOG
WAUKESHA       LGT SNOW  19  18  93 SE5       30.29S WCI  13
MILWAUKEE/TIMM LGT SNOW  21  18  86 SE3       30.31S
RACINE         LGT SNOW  22  18  85 S6        30.32S FOG     WCI  14
BURLINGTON     LGT SNOW  25  24  95 CALM      30.28S
KENOSHA        LGT SNOW  22  18  85 S8        30.29F FOG     WCI  12
FOND DU LAC    LGT SNOW  20  15  81 E3        30.29R
SHEBOYGAN      LGT SNOW  18  15  88 CALM      30.31R FOG
WEST BEND      LGT SNOW  19  19 100 CALM      30.28F
JUNEAU         LGT SNOW  19  17  93 E5        30.28R VSB 1   WCI  12
$$

LSZ147-162-110600-
LAKE SUPERIOR

STATION/POSITION TIME  TEMP    WIND        PRES    WAVE
                       AIR SEA DIR/SP/G            HT/PER
                 (UTC) (F)     (DEG/KT/KT) (MB)    (FT/S)
DEVILS ISLAND    0400   13     190/  7/  9 1026.6F
PORT WING        0440    7     130/  1/  3 1025.4S
SAXON HARBOR     0430    4     200/  5/  7 1025.1F
$$

LMZ867-665-643>646-110600-
LAKE MICHIGAN

STATION/POSITION TIME  TEMP    WIND        PRES    WAVE
                       AIR SEA DIR/SP/G            HT/PER
                 (UTC) (F)     (DEG/KT/KT) (MB)    (FT/S)
CHAMBERS ISLAND  0440   17     230/  3/  8 1025.7F
NORTHPORT PIER   0430   17        CALM     1026.4S
SISTER BAY       0350   19     220/  8/  9   N/A
ALGOMA LAKESHORE 0406             CALM       N/A
KEWAUNEE LAKESHO 0430   17      CALM  /  3 1026.3R
SHEBOYGAN LAKESH 0400   19     230/  2/  3 1027.5F
PORT WASHINGTON  0440   21     240/  2/  4 1027.4S
KENOSHA   LAKESH 0400   22     200/  5/  7 1026.1
$$

TC  - TEMPERATURE IN CELSIUS
VSB - VISIBILITY IN STATUTE MILES
WCI - WIND CHILL INDEX
HX  - HEAT INDEX




USA.gov is the U.S. government's official web portal to all federal, state and local government web resources and services.